| time (UTC) | temp F | wind direction | speed knots | gust knots | rain 1hr in | rain 24hr in | rain mn in | humidity % | barometer mb |
| 20260905083043 | 75 | 313 | 3.5 | 8.7 | 0.00 | 0.00 | 0.00 | 75 | 1011.1 |
| 20260905081543 | 75 | 267 | 2.6 | 6.1 | 0.00 | 0.00 | 0.00 | 73 | 1011.1 |
| 20260905080044 | 75 | 240 | 1.7 | 7.8 | 0.00 | 0.00 | 0.00 | 71 | 1011.1 |
| 20260905074541 | 74 | 294 | 2.6 | 5.2 | 0.00 | 0.00 | 0.00 | 69 | 1011.2 |
| 20260905073037 | 74 | 327 | 1.7 | 4.3 | 0.00 | 0.00 | 0.00 | 71 | 1011.3 |
| 20260905071544 | 73 | 278 | 1.7 | 5.2 | 0.00 | 0.00 | 0.00 | 71 | 1011.3 |
| 20260905070035 | 73 | 289 | 0.9 | 4.3 | 0.00 | 0.00 | 0.00 | 70 | 1011.1 |
| 20260905064534 | 73 | 322 | 0.9 | 3.5 | 0.00 | 0.00 | 0.00 | 67 | 1011.1 |
| 20260905063033 | 73 | 298 | 0.0 | 1.7 | 0.00 | 0.00 | 0.00 | 68 | 1011.1 |
| 20260905061551 | 74 | 307 | 0.0 | 0.9 | 0.00 | 0.00 | 0.00 | 64 | 1011.0 |
| 20260905060049 | 74 | 105 | 0.0 | 0.0 | 0.00 | 0.00 | 0.00 | 57 | 1011.0 |
| 20260905054535 | 73 | 105 | 0.0 | 2.6 | 0.00 | 0.00 | 0.00 | 51 | 1010.9 |
| 20260905053024 | 71 | 95 | 0.0 | 0.0 | 0.00 | 0.00 | 0.00 | 51 | 1011.0 |
| 20260905051529 | 71 | 95 | 0.0 | 0.0 | 0.00 | 0.00 | 0.00 | 54 | 1010.8 |
| 20260905050016 | 69 | 95 | 0.0 | 0.0 | 0.00 | 0.00 | 0.00 | 57 | 1010.8 |
| 20260905044515 | 66 | 95 | 0.0 | 0.0 | 0.00 | 0.00 | 0.00 | 64 | 1010.7 |
| 20260905043018 | 63 | 95 | 0.0 | 0.9 | 0.00 | 0.00 | 0.00 | 72 | 1010.5 |
| 20260905041513 | 61 | 95 | 0.0 | 0.9 | 0.00 | 0.00 | 0.00 | 80 | 1010.4 |
| 20260905040010 | 60 | 95 | 0.0 | 0.9 | 0.00 | 0.00 | 0.00 | 87 | 1010.3 |
| 20260905034507 | 62 | 93 | 0.0 | 0.9 | 0.00 | 0.00 | 0.00 | 91 | 1010.2 |
| 20260905033003 | 63 | 93 | 0.0 | 0.9 | 0.00 | 0.00 | 0.00 | 92 | 1010.2 |
| 20260905031506 | 64 | 93 | 0.0 | 0.0 | 0.00 | 0.00 | 0.00 | 93 | 1010.1 |
| 20260905030002 | 63 | 93 | 0.0 | 0.0 | 0.00 | 0.00 | 0.00 | 92 | 1009.9 |
| 20260905024503 | 63 | 93 | 0.0 | 0.0 | 0.00 | 0.00 | 0.00 | 92 | 1009.9 |
| 20260905023100 | 63 | 93 | 0.0 | 0.0 | 0.00 | 0.00 | 0.00 | 91 | 1009.9 |
| 20260905021606 | 64 | 93 | 0.0 | 0.0 | 0.00 | 0.00 | 0.00 | 90 | 1009.8 |
| 20260905020056 | 64 | 93 | 0.0 | 0.9 | 0.00 | 0.00 | 0.00 | 91 | 1009.8 |
| 20260905014554 | 65 | 93 | 0.0 | 0.0 | 0.00 | 0.00 | 0.00 | 89 | 1009.7 |
| 20260905013113 | 65 | 93 | 0.0 | 0.0 | 0.00 | 0.00 | 0.00 | 88 | 1009.8 |
| 20260905011550 | 65 | 93 | 0.0 | 0.0 | 0.00 | 0.00 | 0.00 | 86 | 1009.8 |
| 20260905010054 | 66 | 93 | 0.0 | 0.0 | 0.00 | 0.00 | 0.00 | 84 | 1009.8 |
| 20260905004545 | 67 | 93 | 0.0 | 0.0 | 0.00 | 0.00 | 0.00 | 81 | 1009.9 |
| 20260905003042 | 67 | 93 | 0.0 | 0.0 | 0.00 | 0.00 | 0.00 | 73 | 1009.9 |
| 20260905001539 | 67 | 93 | 0.0 | 1.7 | 0.00 | 0.00 | 0.00 | 60 | 1010.0 |
| 20260905000038 | 67 | 101 | 0.0 | 0.9 | 0.00 | 0.00 | 0.00 | 56 | 1009.9 |
| 20260904234541 | 67 | 101 | 0.0 | 0.0 | 0.00 | 0.00 | 0.00 | 57 | 1009.9 |
| 20260904233037 | 67 | 101 | 0.0 | 0.0 | 0.00 | 0.00 | 0.00 | 58 | 1009.9 |
| 20260904231536 | 67 | 101 | 0.0 | 0.9 | 0.00 | 0.00 | 0.00 | 59 | 1009.9 |
| 20260904230055 | 67 | 101 | 0.0 | 1.7 | 0.00 | 0.00 | 0.00 | 58 | 1010.0 |
| 20260904224533 | 67 | 101 | 0.0 | 1.7 | 0.00 | 0.00 | 0.00 | 56 | 1010.0 |
| 20260904223030 | 68 | 101 | 0.9 | 2.6 | 0.00 | 0.00 | 0.00 | 55 | 1010.2 |
| 20260904221528 | 68 | 101 | 1.7 | 3.5 | 0.00 | 0.00 | 0.00 | 54 | 1010.2 |
| 20260904220030 | 68 | 101 | 1.7 | 3.5 | 0.00 | 0.00 | 0.00 | 54 | 1010.2 |
| 20260904214526 | 68 | 99 | 1.7 | 4.3 | 0.00 | 0.00 | 0.00 | 56 | 1010.2 |
| 20260904213031 | 69 | 105 | 1.7 | 4.3 | 0.00 | 0.00 | 0.00 | 57 | 1010.3 |
| 20260904211523 | 69 | 95 | 1.7 | 4.3 | 0.00 | 0.00 | 0.00 | 55 | 1010.3 |
| 20260904210022 | 68 | 81 | 0.9 | 4.3 | 0.00 | 0.00 | 0.00 | 55 | 1010.3 |
| 20260904204523 | 67 | 74 | 0.9 | 2.6 | 0.00 | 0.00 | 0.00 | 58 | 1010.4 |
| 20260904203026 | 66 | 119 | 0.9 | 2.6 | 0.00 | 0.00 | 0.00 | 62 | 1010.3 |
| 20260904201533 | 66 | 93 | 0.0 | 1.7 | 0.00 | 0.00 | 0.00 | 69 | 1010.4 |
| 20260904200034 | 66 | 92 | 0.0 | 1.7 | 0.00 | 0.00 | 0.00 | 75 | 1010.2 |
| 20260904194513 | 66 | 92 | 0.0 | 1.7 | 0.00 | 0.00 | 0.00 | 83 | 1010.1 |
| 20260904193013 | 67 | 108 | 0.0 | 3.5 | 0.00 | 0.00 | 0.00 | 89 | 1010.1 |
| 20260904191514 | 67 | 105 | 0.9 | 3.5 | 0.00 | 0.00 | 0.00 | 91 | 1010.1 |
| 20260904190012 | 67 | 103 | 0.0 | 1.7 | 0.00 | 0.00 | 0.00 | 93 | 1010.0 |
| 20260904184510 | 68 | 90 | 0.0 | 1.7 | 0.00 | 0.00 | 0.00 | 93 | 1010.0 |
| 20260904183008 | 68 | 95 | 0.0 | 0.9 | 0.00 | 0.00 | 0.00 | 93 | 1010.1 |
| 20260904181508 | 68 | 103 | 0.0 | 1.7 | 0.00 | 0.00 | 0.00 | 93 | 1010.0 |
| 20260904180007 | 68 | 104 | 0.0 | 0.9 | 0.00 | 0.00 | 0.00 | 92 | 1010.0 |
| 20260904174506 | 68 | 104 | 0.0 | 1.7 | 0.00 | 0.00 | 0.00 | 92 | 1009.8 |
| 20260904173005 | 69 | 302 | 0.0 | 0.9 | 0.00 | 0.00 | 0.00 | 92 | 1009.8 |
| 20260904171503 | 69 | 301 | 0.0 | 0.9 | 0.00 | 0.00 | 0.00 | 92 | 1009.6 |
| 20260904170001 | 69 | 301 | 0.0 | 0.0 | 0.00 | 0.00 | 0.00 | 91 | 1009.3 |
| 20260904164601 | 70 | 301 | 0.0 | 0.0 | 0.00 | 0.00 | 0.00 | 91 | 1009.1 |
| 20260904163059 | 70 | 301 | 0.0 | 0.9 | 0.00 | 0.00 | 0.00 | 90 | 1008.9 |
| 20260904161601 | 71 | 301 | 0.0 | 0.9 | 0.00 | 0.00 | 0.00 | 90 | 1008.7 |
| 20260904160059 | 71 | 301 | 0.0 | 0.9 | 0.00 | 0.00 | 0.00 | 89 | 1008.6 |
| 20260904154556 | 72 | 311 | 0.0 | 1.7 | 0.00 | 0.00 | 0.00 | 88 | 1008.5 |
| 20260904153110 | 72 | 311 | 0.0 | 1.7 | 0.00 | 0.00 | 0.00 | 88 | 1008.4 |
| 20260904151553 | 72 | 301 | 0.0 | 2.6 | 0.00 | 0.00 | 0.00 | 88 | 1008.4 |
| 20260904150054 | 72 | 264 | 0.0 | 2.6 | 0.00 | 0.00 | 0.00 | 86 | 1008.4 |
| 20260904144603 | 73 | 294 | 0.0 | 5.2 | 0.00 | 0.00 | 0.00 | 86 | 1008.3 |
| 20260904143112 | 74 | 290 | 0.9 | 5.2 | 0.00 | 0.00 | 0.00 | 84 | 1008.3 |
| 20260904141554 | 74 | 283 | 0.9 | 2.6 | 0.00 | 0.00 | 0.00 | 84 | 1008.4 |
| 20260904140054 | 73 | 255 | 1.7 | 8.7 | 0.00 | 0.00 | 0.00 | 85 | 1008.4 |
| 20260904134556 | 74 | 264 | 0.9 | 5.2 | 0.00 | 0.00 | 0.00 | 85 | 1008.4 |
| 20260904133103 | 74 | 309 | 1.7 | 6.1 | 0.00 | 0.00 | 0.00 | 84 | 1008.3 |
| 20260904131549 | 75 | 335 | 2.6 | 7.8 | 0.00 | 0.00 | 0.00 | 82 | 1008.2 |
| 20260904130055 | 75 | 267 | 1.7 | 5.2 | 0.00 | 0.00 | 0.00 | 81 | 1008.2 |
| 20260904124551 | 76 | 255 | 0.9 | 5.2 | 0.00 | 0.00 | 0.00 | 81 | 1008.1 |
| 20260904123052 | 75 | 333 | 3.5 | 8.7 | 0.00 | 0.00 | 0.00 | 82 | 1008.2 |
| 20260904121548 | 75 | 280 | 3.5 | 8.7 | 0.00 | 0.00 | 0.00 | 82 | 1008.2 |
| 20260904120058 | 75 | 348 | 2.6 | 7.8 | 0.00 | 0.00 | 0.00 | 81 | 1008.3 |
| 20260904114549 | 75 | 322 | 1.7 | 7.8 | 0.00 | 0.00 | 0.00 | 81 | 1008.2 |
| 20260904113046 | 76 | 323 | 2.6 | 9.6 | 0.00 | 0.00 | 0.00 | 79 | 1008.4 |
| 20260904111545 | 75 | 19 | 2.6 | 6.1 | 0.00 | 0.00 | 0.00 | 80 | 1008.4 |
| 20260904110045 | 75 | 311 | 2.6 | 8.7 | 0.00 | 0.00 | 0.00 | 81 | 1008.4 |
| 20260904104545 | 75 | 329 | 5.2 | 9.6 | 0.00 | 0.00 | 0.00 | 80 | 1008.6 |
| 20260904103044 | 74 | 245 | 0.9 | 8.7 | 0.00 | 0.00 | 0.00 | 81 | 1008.5 |
| 20260904101542 | 75 | 255 | 3.5 | 7.8 | 0.00 | 0.00 | 0.00 | 80 | 1008.5 |
| 20260904100041 | 75 | 234 | 2.6 | 10.4 | 0.00 | 0.00 | 0.00 | 79 | 1008.5 |
| 20260904094541 | 75 | 255 | 1.7 | 10.4 | 0.00 | 0.00 | 0.00 | 79 | 1008.6 |
| 20260904093040 | 75 | 307 | 4.3 | 11.3 | 0.00 | 0.00 | 0.00 | 78 | 1008.5 |
| 20260904091539 | 75 | 255 | 2.6 | 11.3 | 0.00 | 0.00 | 0.00 | 77 | 1008.6 |
| 20260904090038 | 76 | 323 | 2.6 | 7.8 | 0.00 | 0.00 | 0.00 | 75 | 1008.6 |
| 20260904084545 | 77 | 255 | 1.7 | 8.7 | 0.00 | 0.00 | 0.00 | 71 | 1008.5 |